星链-3242 (STARLINK-3242 )

导读

STARLINK-3242是美国SpaceX公司星链星座的卫星,于2021年12月2日发射,属于星链第一代V1.5批次。星链星座旨在构建全球卫星互联网,该卫星运行于近地轨道,配备相控阵天线与氪离子推进系统,可提供高速互联网接入服务,支持全球偏远地区网络覆盖,并具备自主轨道机动和避碰能力,退役后会在大气层中销毁,减少空间碎片影响,服务全球宽带互联。

Basic Information
目录编号:
49727
目录名称:
STARLINK-3242
国际标识:
2021-115D
轨道中心:
EARTH
卫星名称:
星链-3242
卫星全名:
星链-3242 (STARLINK-3242 )
卫星状态:
在轨 (已飞行1658 天)
发射日期:
2021-12-02 UTC
国别 :
美国 (US)
星等 :
--
Orbit Information
数据来源 国际轨道数据 AOE轨道数据
星历时间 2026-06-17T09:21:12+0800
21小时前
查看轨道信息
2026-06-15T17:00:00+0800
2天前
查看轨道信息
半长轴 6917.893km 6917.885km
偏心率 0.0001332 0.0001167
轨道倾角 53.161° 53.158°
近地点辐角 99.463° 96.337°
升交点赤经 72.955° 80.510°
平近点角 260.651° 125.791°
近地点 538.834km 538.94km
远地点 540.678km 540.556km
周期 95.438分钟 95.438分钟
每日圈数 15.08836 15.088388
Detailed Information
固有亮度:
5
最大亮度:
2.5
卫星平台:
Starlink v1.5
覆盖范围:
全球
运营商:
太空探索技术公司
运营商所在国:
美国
制造商(研发单位):
太空探索技术公司
制造商所在国:
美国
使用方式:
暂无
Satellite Introduction
星链(Starlink)计划是由太空探索技术公司(SpaceX)提出的一个巨型低轨卫星互联网星座项目,计划在2019年至2024年间在太空搭建由约1.2万颗卫星组成的“星链”网络,其中1584颗将部署在地球上空550千米处的近地轨道,并从2020年开始工作。该卫星仍在工作。
2D Orbit Map
3D Orbit Map
Orbit Altitude Analysis Chart
Orbit Inclination Analysis Chart
Orbit Comprehensive Analysis Chart
View Comprehensive Chart